This demonstration page uses our WeatherBlox Daily Observations layout. Learn more.

Left ArrowRight Arrow

Hourly Observations for November 21, 2016

Temp ( °F °C ) Dew Point ( °F °C ) Humidity (%) Winds ( mph kmh ) Pressure ( in mb ) Visibility ( mi km ) Precip ( " mm )
12:53 am 00:53 Clear 40 4.4 14 -10 35 35 NW 10 17 30.16 1021 10 16 0.00 0.00
1:53 am 01:53 Clear 40 4.4 15 -9.4 36 36 NNW 10 17 30.16 1021 10 16 0.00 0.00
2:53 am 02:53 Clear 39 3.9 15 -9.4 38 38 Calm 30.16 1021 10 16 0.00 0.00
3:53 am 03:53 Clear 38 3.3 15 -9.4 39 39 Calm 30.16 1022 10 16 0.00 0.00
4:53 am 04:53 Clear 37 2.8 16 -8.9 42 42 NNW 6 9 30.16 1022 10 16 0.00 0.00
5:53 am 05:53 Clear 36 2.2 16 -8.9 44 44 NNW 5 7 30.18 1022 10 16 0.00 0.00
6:53 am 06:53 Clear 36 2.2 16 -8.9 44 44 NNW 5 7 30.19 1023 10 16 0.00 0.00
7:53 am 07:53 Sunny 37 2.8 16 -8.9 42 42 Calm 30.21 1023 10 16 0.00 0.00
8:53 am 08:53 Sunny 41 5 15 -9.4 35 35 NW 6 9 30.22 1023 10 16 0.00 0.00
9:53 am 09:53 Sunny 46 7.8 13 -10.6 26 26 NNW 12 19 30.23 1024 10 16 0.00 0.00
10:53 am 10:53 Sunny 50 10 10 -12.2 20 20 NNW 12 19 30.22 1023 10 16 0.00 0.00
11:53 am 11:53 Sunny 54 12.2 9 -12.8 16 16 NNW 10 17 30.20 1023 10 16 0.00 0.00
12:53 pm 12:53 Sunny 58 14.4 7 -13.9 13 13 NNW 14 22 30.17 1022 10 16 0.00 0.00
1:53 pm 13:53 Sunny 58 14.4 3 -16.1 11 11 WNW 14 22 30.15 1021 10 16 0.00 0.00
2:53 pm 14:53 Sunny 59 15 3 -16.1 10 10 NW 10 17 30.15 1021 10 16 0.00 0.00
3:53 pm 15:53 Sunny 58 14.4 3 -16.1 11 11 WNW 10 17 30.15 1021 10 16 0.00 0.00
4:53 pm 16:53 Sunny 56 13.3 4 -15.6 12 12 NNW 12 19 30.16 1021 10 16 0.00 0.00
5:53 pm 17:53 Clear 52 11.1 5 -15 15 15 NW 5 7 30.17 1022 10 16 0.00 0.00
6:53 pm 18:53 Clear 50 10 6 -14.4 17 17 NE 3 6 30.18 1022 10 16 0.00 0.00
7:53 pm 19:53 Clear 48 8.9 7 -13.9 19 19 Calm 30.18 1022 10 16 0.00 0.00
8:53 pm 20:53 Clear 44 6.7 13 -10.6 28 28 Calm 30.20 1023 10 16 0.00 0.00
9:53 pm 21:53 Clear 43 6.1 14 -10 31 31 Calm 30.19 1022 10 16 0.00 0.00
10:53 pm 22:53 Clear 42 5.6 15 -9.4 33 33 SSE 3 6 30.17 1022 10 16 0.00 0.00
11:53 pm 23:53 Clear 37 2.8 19 -7.2 48 48 Calm 30.19 1023 10 16 0.00 0.00

Powered by AerisWeather